Weather History for KPQI - January, 2014

Change the Weather History Date:

Friday, January 10, 2014

  Actual Average Record
Temperature  
Mean Temperature 5 °F -  
Max Temperature 19 °F 18 °F 46 °F (1978)
Min Temperature -9 °F 0 °F -30 °F (1927)
Degree Days  
Heating Degree Days 60    
Moisture  
Dew Point -8 °F    
Average Humidity 52    
Maximum Humidity 100    
Minimum Humidity 21    
Precipitation  
Precipitation 0.00 in - - ()
Sea Level Pressure  
Sea Level Pressure 30.32 in    
Wind  
Wind Speed 2 mph (SSE)    
Max Wind Speed 10 mph    
Max Gust Speed -    
Visibility 10 miles    
Events      
Averages and records for this station are not official NWS values.
T = Trace of Precipitation, MM = Missing Value Source: NWS Daily Summary

Daily Weather History Graph

Daily Weather History Graph

Search for Another Location

Airport or City:

Trip Planner

Search our weather history database for the weather conditions in past years. The results will help you decide how hot, cold, wet, or windy it might be!

Date:

Astronomy

Jan. 10, 2014 Rise Set
Actual Time 7:15 AM EST 4:04 PM EST
Civil Twilight 6:40 AM EST 4:39 PM EST
Nautical Twilight 6:02 AM EST 5:17 PM EST
Astronomical Twilight 5:26 AM EST 5:53 PM EST
Moon 12:11 PM EST (1/10) 2:12 AM EST (1/10)
Length of Visible Light 9h 58m
Length of Day
8h 49m
Waxing Gibbous, 75% of the Moon is Illuminated
Jan 10
Waxing Gibbous
Jan 15
Full
Jan 24
Last Quarter
Jan 30
New
Feb 6
First Quarter

Hourly Weather History & Observations

Time (EST) Temp. Windchill Dew Point Humidity Pressure Visibility Wind Dir Wind Speed Gust Speed Precip Events Conditions
12:15 AM -5.8 °F - -20.2 °F 50% 30.45 in 10.0 mi Calm Calm - N/A   Clear
12:35 AM -5.8 °F - -25.6 °F 38% 30.44 in 10.0 mi Calm Calm - N/A   Clear
12:55 AM -5.8 °F - -5.8 °F 100% 30.44 in 10.0 mi Calm Calm - N/A   Clear
1:15 AM -7.6 °F - -20.2 °F 54% 30.44 in 10.0 mi Calm Calm - N/A   Clear
1:35 AM -7.6 °F - -23.8 °F 45% 30.45 in 10.0 mi Calm Calm - N/A   Clear
1:55 AM -7.6 °F - -11.2 °F 84% 30.45 in 10.0 mi Calm Calm - N/A   Clear
2:15 AM -9.4 °F - -25.6 °F 45% 30.44 in 10.0 mi Calm Calm - N/A   Clear
2:35 AM -7.6 °F - -20.2 °F 54% 30.44 in 10.0 mi Calm Calm - N/A   Clear
2:55 AM -9.4 °F - -25.6 °F 45% 30.43 in 10.0 mi Calm Calm - N/A   Clear
3:15 AM -7.6 °F - -18.4 °F 59% 30.43 in 10.0 mi Calm Calm - N/A   Clear
3:35 AM -9.4 °F - -29.2 °F 37% 30.43 in 10.0 mi Calm Calm - N/A   Clear
3:55 AM -7.6 °F - - N/A% 30.41 in 10.0 mi Calm Calm - N/A   Clear
4:15 AM -5.8 °F - - N/A% 30.41 in 10.0 mi Calm Calm - N/A   Clear
4:35 AM -7.6 °F - - N/A% 30.41 in 10.0 mi Calm Calm - N/A   Clear
4:55 AM -7.6 °F - -23.8 °F 45% 30.40 in 10.0 mi Calm Calm - N/A   Clear
5:15 AM -5.8 °F - -5.8 °F 100% 30.40 in 10.0 mi Calm Calm - N/A   Clear
5:35 AM -4.0 °F - - N/A% 30.38 in 10.0 mi Calm Calm - N/A   Clear
5:55 AM -4.0 °F - - N/A% 30.38 in 10.0 mi Calm Calm - N/A   Clear
6:15 AM -7.6 °F - -27.4 °F 38% 30.38 in 10.0 mi Calm Calm - N/A   Clear
6:35 AM -5.8 °F - -20.2 °F 50% 30.38 in 10.0 mi Calm Calm - N/A   Clear
6:55 AM -7.6 °F - -18.4 °F 59% 30.37 in 10.0 mi Calm Calm - N/A   Clear
7:15 AM -5.8 °F - -16.6 °F 60% 30.37 in 10.0 mi Calm Calm - N/A   Clear
7:35 AM -5.8 °F -16.7 °F -18.4 °F 55% 30.37 in 10.0 mi South 4.6 mph - N/A   Clear
7:55 AM -4.0 °F -16.3 °F - N/A% 30.37 in 10.0 mi South 5.8 mph - N/A   Clear
8:15 AM -4.0 °F - - N/A% 30.38 in 10.0 mi Calm Calm - N/A   Clear
8:35 AM -0.4 °F - -27.4 °F 27% 30.38 in 10.0 mi Calm Calm - N/A   Clear
8:55 AM -0.4 °F - -18.4 °F 43% 30.38 in 10.0 mi Calm Calm - N/A   Clear
9:15 AM 1.4 °F - -11.2 °F 56% 30.38 in 10.0 mi Calm Calm - N/A   Clear
9:35 AM 3.2 °F - -9.4 °F 56% 30.38 in 10.0 mi Calm Calm - N/A   Clear
9:55 AM 3.2 °F -9.1 °F -9.4 °F 56% 30.36 in 10.0 mi SSE 6.9 mph - N/A   Clear
10:15 AM 3.2 °F -6.2 °F -9.4 °F 56% 30.36 in 10.0 mi SE 4.6 mph - N/A   Clear
10:35 AM 5.0 °F -4.1 °F -7.6 °F 56% 30.35 in 10.0 mi ESE 4.6 mph - N/A   Clear
10:55 AM 6.8 °F -2.0 °F 1.4 °F 79% 30.33 in 10.0 mi SSE 4.6 mph - N/A   Clear
11:15 AM 8.6 °F -1.3 °F -22.0 °F 24% 30.32 in 10.0 mi SE 5.8 mph - N/A   Clear
11:35 AM 10.4 °F 2.2 °F -18.4 °F 26% 30.31 in 10.0 mi SSE 4.6 mph - N/A   Clear
11:55 AM 10.4 °F 2.2 °F -16.6 °F 29% 30.29 in 10.0 mi South 4.6 mph - N/A   Clear
12:15 PM 12.2 °F 4.3 °F -7.6 °F 41% 30.28 in 10.0 mi SSE 4.6 mph - N/A   Clear
12:35 PM 14.0 °F 6.5 °F -5.8 °F 41% 30.27 in 10.0 mi SE 4.6 mph - N/A   Clear
12:55 PM 15.8 °F 5.1 °F -7.6 °F 35% 30.27 in 10.0 mi SSE 8.1 mph - N/A   Clear
1:15 PM 15.8 °F 6.1 °F -18.4 °F 21% 30.27 in 10.0 mi SE 6.9 mph - N/A   Clear
1:35 PM 14.0 °F 1.2 °F -5.8 °F 41% 30.26 in 10.0 mi SSE 10.4 mph - N/A   Clear
1:55 PM 15.8 °F 7.2 °F -5.8 °F 38% 30.26 in 10.0 mi SE 5.8 mph - N/A   Clear
2:15 PM 17.6 °F 9.3 °F -5.8 °F 35% 30.26 in 10.0 mi SSE 5.8 mph - N/A   Clear
2:35 PM 17.6 °F 7.3 °F -2.2 °F 42% 30.26 in 10.0 mi ESE 8.1 mph - N/A   Clear
2:55 PM 17.6 °F 12.3 °F -2.2 °F 42% 30.25 in 10.0 mi ESE 3.5 mph - N/A   Clear
3:15 PM 19.4 °F 10.4 °F -4.0 °F 36% 30.25 in 10.0 mi SSE 6.9 mph - N/A   Clear
3:35 PM 17.6 °F 7.3 °F -2.2 °F 42% 30.25 in 10.0 mi SSE 8.1 mph - N/A   Clear
3:55 PM 17.6 °F 7.3 °F -2.2 °F 42% 30.25 in 10.0 mi SSE 8.1 mph - N/A   Clear
4:15 PM 17.6 °F 8.2 °F -0.4 °F 45% 30.25 in 10.0 mi SSE 6.9 mph - N/A   Clear
4:35 PM 15.8 °F 7.2 °F 1.4 °F 53% 30.25 in 10.0 mi SSE 5.8 mph - N/A   Clear
4:55 PM 15.8 °F 8.6 °F -0.4 °F 49% 30.25 in 10.0 mi SSE 4.6 mph - N/A   Partly Cloudy
5:15 PM 15.8 °F 6.1 °F -11.2 °F 30% 30.25 in 10.0 mi South 6.9 mph - N/A   Partly Cloudy
5:35 PM 15.8 °F 8.6 °F -0.4 °F 49% 30.25 in 10.0 mi South 4.6 mph - N/A   Clear
5:55 PM 15.8 °F 8.6 °F 1.4 °F 53% 30.24 in 10.0 mi South 4.6 mph - N/A   Clear
6:15 PM 14.0 °F 5.1 °F -0.4 °F 53% 30.24 in 10.0 mi South 5.8 mph - N/A   Clear
6:35 PM 12.2 °F 6.1 °F 1.4 °F 62% 30.24 in 10.0 mi South 3.5 mph - N/A   Clear
6:55 PM 14.0 °F - 1.4 °F 57% 30.25 in 10.0 mi Calm Calm - N/A   Clear
7:15 PM 14.0 °F - 1.4 °F 57% 30.24 in 10.0 mi Calm Calm - N/A   Clear
7:35 PM 14.0 °F 8.2 °F 3.2 °F 62% 30.23 in 10.0 mi South 3.5 mph - N/A   Scattered Clouds
7:55 PM 12.2 °F 2.9 °F 3.2 °F 67% 30.23 in 10.0 mi South 5.8 mph - N/A   Overcast
8:15 PM 14.0 °F 3.9 °F 3.2 °F 62% 30.23 in 10.0 mi South 6.9 mph - N/A   Mostly Cloudy
8:35 PM 14.0 °F - 1.4 °F 57% 30.23 in 10.0 mi Calm Calm - N/A   Scattered Clouds
8:55 PM 15.8 °F 10.2 °F 3.2 °F 58% 30.23 in 10.0 mi SSE 3.5 mph - N/A   Mostly Cloudy
9:15 PM 15.8 °F 7.2 °F 3.2 °F 58% 30.24 in 10.0 mi South 5.8 mph - N/A   Overcast
9:35 PM 15.8 °F 8.6 °F 3.2 °F 58% 30.23 in 10.0 mi South 4.6 mph - N/A   Overcast
9:55 PM 17.6 °F - 5.0 °F 58% 30.23 in 10.0 mi Calm Calm - N/A   Overcast
10:15 PM 14.0 °F - 3.2 °F 62% 30.23 in 10.0 mi Calm Calm - N/A   Overcast
10:35 PM 14.0 °F - 5.0 °F 67% 30.22 in 10.0 mi Calm Calm - N/A   Mostly Cloudy
10:55 PM 14.0 °F - 3.2 °F 62% 30.23 in 10.0 mi Calm Calm - N/A   Scattered Clouds
11:15 PM 10.4 °F - 5.0 °F 79% 30.21 in 10.0 mi Calm Calm - N/A   Overcast
11:35 PM 15.8 °F - 10.4 °F 79% 30.21 in 10.0 mi Calm Calm - N/A   Mostly Cloudy
11:55 PM 12.2 °F - 10.4 °F 92% 30.21 in 10.0 mi Calm Calm - N/A   Overcast